Erzincan, Turkey

7:58 AM +03 on January 19, 2018 (GMT +0300)
Erzincan

Weather History for LTCD - October, 2011

Change the Weather History Date:

Sunday, October 9, 2011

  Actual Average Record
Temperature  
Mean Temperature 58 °F -  
Max Temperature 77 °F 62 °F - ()
Min Temperature 39 °F 39 °F - ()
Degree Days  
Heating Degree Days 7    
Growing Degree Days 8 (Base 50)    
Moisture  
Dew Point 40 °F    
Average Humidity 53    
Maximum Humidity 93    
Minimum Humidity 15    
Precipitation  
Precipitation 0.00 in 0.05 in - ()
Sea Level Pressure  
Sea Level Pressure 30.10 in    
Wind  
Wind Speed 1 mph ()    
Max Wind Speed 8 mph    
Max Gust Speed -    
Visibility 6.4 miles    
Events      
T = Trace of Precipitation, MM = Missing Value Source: Averaged Metar Reports

Daily Weather History Graph

Daily Weather History Graph

Search for Another Location

Airport or City:

Trip Planner

Search our weather history database for the weather conditions in past years. The results will help you decide how hot, cold, wet, or windy it might be!

Date:

Astronomy

Oct. 09, 2011 Rise Set
Actual Time 6:25 AM EEST 5:52 PM EEST
Civil Twilight 5:58 AM EEST 6:19 PM EEST
Nautical Twilight 5:27 AM EEST 6:50 PM EEST
Astronomical Twilight 4:55 AM EEST 7:22 PM EEST
Moon 4:19 PM EEST (10/9) 3:50 AM EEST (10/9)
Length of Visible Light 12h 21m
Length of Day
11h 27m
Waxing Gibbous, 93% of the Moon is Illuminated
Oct 9
Waxing Gibbous
Oct 12
Full
Oct 20
Last Quarter
Oct 26
New
Nov 2
First Quarter

Hourly Weather History & Observations

Time (EEST) Temp. Windchill Dew Point Humidity Pressure Visibility Wind Dir Wind Speed Gust Speed Precip Events Conditions
12:50 AM 50.0 °F - 39.2 °F 66% 30.09 in 6.2 mi Calm Calm - N/A   Scattered Clouds
1:50 AM 48.2 °F - 39.2 °F 71% 30.09 in 6.2 mi Calm Calm - N/A   Scattered Clouds
3:00 AM 45 °F - 38 °F 68%  in 6 mi Calm Calm - -   Partly Cloudy
3:50 AM 42.8 °F - 39.2 °F 87% 30.09 in 6.2 mi Variable 1.2 mph - N/A   Scattered Clouds
4:50 AM 42.8 °F - 39.2 °F 87% 30.09 in 6.2 mi Calm Calm - N/A   Scattered Clouds
5:50 AM 41.0 °F - 37.4 °F 87% 30.12 in 6.2 mi Calm Calm - N/A   Scattered Clouds
6:50 AM 41.0 °F 39.0 °F 39.2 °F 93% 30.12 in 6.2 mi North 3.5 mph - N/A   Partly Cloudy
7:50 AM 46.4 °F - 41.0 °F 81% 30.12 in 6.2 mi SW 2.3 mph - N/A   Partly Cloudy
8:50 AM 57.2 °F - 39.2 °F 51% 30.15 in - Calm Calm - N/A   Clear
9:00 AM 57 °F - 40 °F 41%  in 6 mi Calm Calm - -  
9:50 AM 60.8 °F - 41.0 °F 48% 30.15 in 6.2 mi Calm Calm - N/A   Partly Cloudy
10:50 AM 66.2 °F - 41.0 °F 40% 30.12 in 6.2 mi Variable 2.3 mph - N/A   Scattered Clouds
11:50 AM 71.6 °F - 41.0 °F 33% 30.12 in 6.2 mi SW 3.5 mph - N/A   Scattered Clouds
1:50 PM 75.2 °F - 37.4 °F 25% 30.06 in 6.2 mi East 4.6 mph - N/A   Mostly Cloudy
2:50 PM 75.2 °F - 37.4 °F 25% 30.06 in 6.2 mi SW 2.3 mph - N/A   Mostly Cloudy
3:00 PM 75 °F - 37 °F 15%  in 6 mi SW 2.3 mph - -   Partly Cloudy
3:50 PM 73.4 °F - 37.4 °F 27% 30.06 in 6.2 mi WSW 8.1 mph - N/A   Mostly Cloudy
4:50 PM 75.2 °F - 35.6 °F 24% 30.06 in 6.2 mi Variable 2.3 mph - N/A   Mostly Cloudy
5:50 PM 66.2 °F - 39.2 °F 37% 30.09 in 6.2 mi WSW 4.6 mph - N/A   Scattered Clouds
6:50 PM 66.2 °F - 39.2 °F 37% 30.09 in 6.2 mi West 4.6 mph - N/A   Scattered Clouds
7:50 PM 64.4 °F - 39.2 °F 40% 30.12 in 6.2 mi Variable 2.3 mph - N/A   Mostly Cloudy
8:50 PM 59.0 °F - 41.0 °F 51% 30.12 in 6.2 mi Calm Calm - N/A   Mostly Cloudy
9:00 PM 59 °F - 42 °F 41%  in 12 mi Calm Calm - -   Partly Cloudy
9:50 PM 51.8 °F - 42.8 °F 71% 30.12 in 6.2 mi WNW 3.5 mph - N/A   Mostly Cloudy
10:50 PM 51.8 °F - 42.8 °F 71% 30.12 in 6.2 mi West 4.6 mph - N/A   Scattered Clouds
11:50 PM 51.8 °F - 42.8 °F 71% 30.15 in 6.2 mi Calm Calm - N/A   Scattered Clouds